Location: Alafon
(8.4500°N, 4.2333°E)
Time: 23:54:53
(UTC+00:00)

Explorer 7 - Pass Details

Date: 27 July 2021
Orbit: 484 x 676 km, 50.3° (Epoch: 18 September)

Event Time Altitude Azimuth Distance (km) Brightness Sun altitude
Rises 13:23:05 0° 355° (N) 2,921 10.7 65.0°
Reaches altitude 10° 13:27:05 10° 29° (NNE) 2,054 9.9 64.1°
Maximum altitude 13:28:37 11° 48° (NE) 1,972 9.7 63.8°
Drops below altitude 10° 13:30:11 10° 67° (ENE) 2,078 9.7 63.4°
Sets 13:34:16 0° 101° (E) 3,011 10.3 62.5°
